Погода в Паневежисе

Поиск расширенной информации на нашем сайте:

Полезная информация:

Новости сайта



02.01.2020
Опубликован Долгосрочный прогноз погоды по городам России и ближнего зарубежья на январь 2020 года.
Карты: Прогноз на январь и февраль 2020 года, Сравнение прогнозируемой аномалии приземной температуры воздуха на январь 2020 года по разным моделям.




Погода в Паневежисе - сегодня

Время (UTC), дата Ветер
(°,м/с) 
Видим.   Явления Облачность Т
(°С)
Тd
(°С)
f(%) Тe
(°С)
Pmin
(гПа)
dP
(гПа)
Po
(мм)
O2
(г/м3)
Тmin Tmax R s Состояние
почвы
15 04.08.20 180 (Ю) 3-4{05}  9000 м  слаб. дождь  10/10 600 м 
+19.1 +17.1 88 +32  1009.8  0.7  752  279      0.5     
18 04.08.20 200 (Ю) 1-3{04}  5000 м  слаб. дождь  9/9 200 м 
+18 +17.2 95 +32  1010.6  0.8  753  281    +22.3     
21 04.08.20 тихо () -1{05}  5000 м  дымка  9/9 300 м 
+16.7 +15.9 95 +27  1011.2  0.6  753  283         
00 05.08.20 300 (СЗ) 2-5{05}  18000 м    10/10 100 м 
+16.6 +15.8 95 +27  1012.6  1.4  754  283         
03 05.08.20 290 (З) 2-4{06}  18000 м    3/3 300 м 
+15.3 +14.5 95 +24  1014.7  756  285           
06 05.08.20 280 (З) 2-3{06}  10 км    10/10 200 м 
+16.1 +14.9 93 +25  1016.8  2.1  757  285  +15.3       
09 05.08.20 330 (СЗ) 1-4{04}  19000 м    6/0 
+19 +14 73 +28  1018.4  1.7  759  283           
09 10.08.20 340 (С) 4-7{00}  20000 м    10/0 
+24.7 +16.1 59 +35  1019.6  1.3  760  277      0.1     
12 10.08.20 350 (С) 4-7{09}  20000 м    ясно 
+26.1 +16.6 56 +37  1018.6  -0.9  759  276      0.1     
15 10.08.20 350 (С) 5-9{09}  20000 м    ясно 
+26.2 +14.9 50 +34  1018.3  -0.4  759  276           
18 10.08.20 360 (С) 4-7{10}  20000 м    ясно 
+21.2 +11.2 53 +24  1019.1  0.7  759  282    +27.4  0.1     
21 10.08.20 320 (СЗ) 1-3{07}  20000 м    ясно 
+15.1 +9.1 67 +16  1020.3  1.1  760  289           
00 11.08.20 360 (С) 2-3{04}  20000 м    ясно 
+13.5 +11.6 88 +17  1020.7  0.3  760  290           
03 11.08.20 360 (С) 3-4{04}  20000 м    ясно 
+12.6 +10.7 88 +14  1021.5  0.8  761  291           
06 11.08.20 030 (СВ) 3-5{05}  20000 м    ясно 
+16.8 +10.1 65 +18  1022.4  762  287  +12.5         
09 11.08.20 020 (С) 5-9{09}  20000 м    1/0 
+20.7 +8 44 +21  1022.4  0.1  762  284           
12 11.08.20 000 (С) 4-8{10}  20000 м    3/0 
+22.6 +8.9 42 +23  1021.9  -0.5  761  282           
15 11.08.20 350 (С) 6-9{10}  20000 м    1/0 
+22.4 +7 37 +22  1021.6  -0.3  761  282           
18 11.08.20 010 (С) 3-4{09}  20000 м    ясно 
+18.4 +7.4 49 +19  1021.6  0.1  761  286    +23.3       
21 11.08.20 тихо () -2{04}  20000 м    ясно 
+13.7 +9.1 74 +14  1022.4  0.7  761  291           
00 12.08.20 тихо () -2{02}  20000 м    ясно 
+10.2 +8.5 89 +10  1023.6  1.1  762  295           
03 12.08.20 тихо () -2{03}  20000 м  в посл. час туман  9/9 1500 м 
+9.9 +8.4 90 +10  1023.6  762  295           
06 12.08.20 360 (С) 2-4{04}  20000 м    9/9 1500 м 
+13.7 +9.8 77 +15  1023.8  0.3  763  291  +8.8         
09 12.08.20 010 (С) 3-6{06}  20000 м    9/9 1000 м 
+17.3 +6.4 49 +18  1023.7  763  288           
12 12.08.20 040 (СВ) 2-4{07}  20000 м    9/9 1500 м 
+19 +6.7 45 +20  1023  -0.6  762  286           
Время (UTC), дата Ветер
(°,м/с) 
Видим.   Явления Облачность Т
(°С)
Тd
(°С)
f(%) Тe
(°С)
Pmin
(гПа)
dP
(гПа)
Po
(мм)
O2
(г/м3)
Тmin Tmax R s Состояние
почвы

Для получения пояснительной информации подведите курсор к названию столбца.

ПОГОДА в Паневежисе - архив

Всё, что Вы хотите узнать о погоде в Паневежисе - удобно и подробно!

Выберите нужную дату (начиная с 1 января 2019* года) и нажмите кнопку "Найти".
Будут отображены архивные сводки погоды по пункту Паневежис, начиная с указанной даты.


Отображать данные в формате CSV (для использования в таблицах Excel)


Внимание! Наш архив погоды предназначен исключительно для личного некоммерческого использования в познавательных целях. Если Вам необходимы официальные справки о состоянии погоды (для производственных, юридических, коммерческих и т.п. целей), обращайтесь в органы Росгидромета.

*Примечание: данная дата относится к архиву по метеостанциям СССР (Россия, СНГ, Балтия).
Архив по метеостанциям Зарубежной Европы и Азии (кроме Китая) хранится 10 дней, по другим регионам земного шара (Китай, Африка, Америка, Австралия, Океания) - 1 день.

Паневежис - район местоположения метеостанции


Название, широта, долгота, высота метеостанции:
Паневежис 55.8°ш. 24.4°д. 58 м над ур. моря [Литва]

Дополнительная информация

В oтличие oт бoльшинства пoгoдных сайтoв мы публикуем пoдрoбную метеoинфoрмацию в детальнoм прoфессиoнальнoм фoрмате.

Характеристики температуры и влажнoсти вoздуха измеряются на высoте 2 м в тени вдали oт зданий и деревьев.
Скoрoсть ветра измеряется на высoте 10 м (на урoвне рoста челoвека скoрoсть ветра ниже в 1.5-2 раза). Если метеoстанция нахoдится в гoрoде или в лесу, тo скoрoсть ветра занижена на 2-4 м/с пo сравнению с oткрытым местoм. Скoрoсть ветра над акватoриями крупных рек и oзёр, а также на вершинах хoлмoв на 2-5 м/с выше, чем в oбычных услoвиях.
Атмoсфернoе давление в разных тoчках местнoсти мoжет значительнo oтличаться oт давления на метеoстанции, в зависимoсти oт услoвий рельефа (при пoдъёме на 10 м давление пoнижается примернo на 1 мм рт.ст.).